Weather History for Jackson, WY

Change the Weather History Date:

Monday, January 14, 2013

  Actual Average Record
Temperature  
Mean Temperature -14 °F -  
Max Temperature 0 °F 26 °F 40 °F (1973)
Min Temperature -27 °F 6 °F -28 °F (1964)
Degree Days  
Heating Degree Days 78    
Moisture  
Dew Point -12 °F    
Average Humidity 85    
Maximum Humidity 92    
Minimum Humidity 75    
Precipitation  
Precipitation 0.00 in - - ()
Sea Level Pressure  
Sea Level Pressure 30.08 in    
Wind  
Wind Speed 3 mph (NNE)    
Max Wind Speed 14 mph    
Max Gust Speed -    
Visibility 6 miles    
Events Snow    
Averages and records for this station are not official NWS values.
T = Trace of Precipitation, MM = Missing Value Source: NWS Daily Summary

Daily Weather History Graph

Daily Weather History Graph

Search for Another Location

Airport:

Trip Planner

Search our weather history database for the weather conditions in past years. The results will help you decide how hot, cold, wet, or windy it might be!

Date:

Astronomy

Jan. 14, 2013 Rise Set
Actual Time 7:53 AM MST 5:11 PM MST
Civil Twilight 7:21 AM MST 5:43 PM MST
Nautical Twilight 6:46 AM MST 6:18 PM MST
Astronomical Twilight 6:11 AM MST 6:52 PM MST
Moon 9:21 AM MST (1/14) 9:09 PM MST (1/14)
Length of Visible Light 10h 21m
Length of Day
9h 17m
Waxing Crescent, 12% of the Moon is Illuminated
Jan 14
Waxing Crescent
Jan 18
First Quarter
Jan 26
Full
Feb 3
Last Quarter
Feb 10
New

Hourly Weather History & Observations

Time (MST) Temp. Windchill Dew Point Humidity Pressure Visibility Wind Dir Wind Speed Gust Speed Precip Events Conditions
12:15 AM -11.2 °F -23.0 °F -14.8 °F 84% 30.01 in 8.0 mi North 4.6 mph - N/A   Overcast
12:35 AM -11.2 °F -23.0 °F -14.8 °F 84% 30.02 in 5.0 mi North 4.6 mph - N/A   Overcast
12:55 AM -9.4 °F -18.6 °F -11.2 °F 92% 30.03 in 5.0 mi NE 3.5 mph - N/A   Overcast
1:15 AM -9.4 °F - -11.2 °F 92% 30.02 in 9.0 mi Calm Calm - N/A   Overcast
1:55 AM -9.4 °F -20.9 °F -13.0 °F 84% 30.03 in 5.0 mi NNW 4.6 mph - N/A   Overcast
2:15 AM -9.4 °F -18.6 °F -13.0 °F 84% 30.03 in 3.0 mi North 3.5 mph - N/A   Overcast
2:35 AM -9.4 °F -18.6 °F -11.2 °F 92% 30.04 in 2.0 mi North 3.5 mph - N/A   Overcast
2:55 AM -9.4 °F - -11.2 °F 92% 30.04 in 2.5 mi Calm Calm - N/A   Overcast
3:15 AM -9.4 °F -18.6 °F -13.0 °F 84% 30.04 in 2.5 mi North 3.5 mph - N/A   Mostly Cloudy
3:35 AM -11.2 °F -20.6 °F -14.8 °F 84% 30.05 in 5.0 mi NNE 3.5 mph - N/A   Overcast
3:55 AM -11.2 °F -20.6 °F -14.8 °F 84% 30.05 in 7.0 mi NE 3.5 mph - N/A   Overcast
4:15 AM -14.8 °F -29.1 °F -18.4 °F 84% 30.05 in 7.0 mi North 5.8 mph - N/A   Overcast
4:35 AM -14.8 °F -27.2 °F -16.6 °F 92% 30.05 in 4.0 mi NNW 4.6 mph - N/A   Overcast
4:55 AM -14.8 °F -24.8 °F -16.6 °F 92% 30.05 in 7.0 mi North 3.5 mph - N/A   Mostly Cloudy
5:15 AM -16.6 °F -29.3 °F -20.2 °F 84% 30.05 in 1.2 mi NNE 4.6 mph - N/A   Mostly Cloudy
5:35 AM -14.8 °F -24.8 °F -16.6 °F 92% 30.06 in 1.0 mi NE 3.5 mph - N/A   Mostly Cloudy
5:55 AM -14.8 °F - -18.4 °F 84% 30.06 in 1.2 mi Calm Calm - N/A   Mostly Cloudy
6:15 AM -16.6 °F - -20.2 °F 84% 30.07 in 9.0 mi Calm Calm - N/A   Scattered Clouds
6:35 AM -20.2 °F - -23.8 °F 83% 30.07 in 10.0 mi Calm Calm - N/A   Partly Cloudy
6:52 AM -20.2 °F - -23.8 °F 83% 30.08 in 10.0 mi Calm Calm - N/A   Clear
7:52 AM -27.4 °F -49.0 °F -32.8 °F 75% 30.09 in 10.0 mi North 9.2 mph - N/A   Clear
8:55 AM -20.2 °F -33.5 °F -23.8 °F 83% 30.12 in 10.0 mi NNE 4.6 mph - N/A   Clear
9:51 AM -20.2 °F -35.5 °F -23.8 °F 83% 30.12 in 10.0 mi NNE 5.8 mph - N/A   Clear
10:54 AM -11.2 °F - -14.8 °F 84% 30.12 in 10.0 mi Calm Calm - N/A   Clear
11:51 AM -7.6 °F - -11.2 °F 84% 30.10 in 10.0 mi Calm Calm - N/A   Clear
12:56 PM -5.8 °F -14.5 °F -7.6 °F 92% 30.07 in 10.0 mi ENE 3.5 mph - N/A   Clear
1:52 PM -4.0 °F -12.4 °F -7.6 °F 85% 30.04 in 10.0 mi ENE 3.5 mph - N/A   Clear
2:58 PM -0.4 °F - -5.8 °F 78% 30.07 in 10.0 mi Calm Calm - N/A   Scattered Clouds
3:56 PM -2.2 °F -10.4 °F -5.8 °F 85% 30.06 in 6.0 mi ENE 3.5 mph - N/A   Overcast
4:54 PM -0.4 °F - -2.2 °F 92% 30.08 in 3.0 mi Calm Calm - N/A Snow Light Snow
5:52 PM -0.4 °F - -4.0 °F 85% 30.09 in 6.0 mi Calm Calm - N/A Snow Light Snow
6:52 PM -2.2 °F - -5.8 °F 85% 30.09 in 4.0 mi Calm Calm - N/A Snow Light Snow
7:54 PM -2.2 °F - -4.0 °F 92% 30.11 in 5.0 mi Calm Calm - N/A Snow Light Snow
8:51 PM -2.2 °F -12.5 °F -5.8 °F 85% 30.11 in 4.0 mi North 4.6 mph - N/A Snow Light Snow
8:55 PM -2.2 °F -16.8 °F -5.8 °F 85% 30.12 in 4.0 mi North 8.1 mph - N/A   Overcast
9:15 PM -2.2 °F -21.5 °F -5.8 °F 85% 30.13 in 3.0 mi North 13.8 mph - N/A   Overcast
9:35 PM -2.2 °F -15.6 °F -5.8 °F 85% 30.14 in 7.0 mi NNE 6.9 mph - N/A   Overcast
9:55 PM -2.2 °F -15.6 °F -5.8 °F 85% 30.14 in 10.0 mi NNE 6.9 mph - N/A   Overcast
10:35 PM -0.4 °F -8.3 °F -5.8 °F 78% 30.15 in 10.0 mi ENE 3.5 mph - N/A   Overcast
10:55 PM -2.2 °F - -5.8 °F 85% 30.15 in 7.0 mi Calm Calm - N/A   Overcast
11:15 PM -2.2 °F - -5.8 °F 85% 30.16 in 5.0 mi Calm Calm - N/A   Overcast
11:35 PM -0.4 °F - -5.8 °F 78% 30.17 in 4.0 mi Calm Calm - N/A   Overcast
11:55 PM -2.2 °F - -5.8 °F 85% 30.17 in 5.0 mi Calm Calm - N/A   Overcast